Terminal Aerodrome Forecast
Issued by NWS

Home | Current Version | Previous Version | Text Only | Print | Product List | Glossary On
Versions: 1 2 3 4 5 6 7 8 9 10 11 12 13 14 15 16
000
FTUS43 KEAX 260300 AAA
TAFSTJ
TAF AMD
KSTJ 260302Z 2603/2624 17010KT P6SM BKN200
     FM260700 19009KT P6SM BKN150
     FM261900 22006KT P6SM BKN020
     FM262200 35006KT P6SM OVC018=

USA.gov is the U.S. government's official web portal to all federal, state and local government web resources and services.